Date String (YYYY-MM-DD hh:mm:ss) UTC,Instrument flags,Ambient pressure (hPa),Sample flow (lpm),Bypass flow (lpm),Sample temperature (°C),Ambient temperature (°C),ASC tube jacket temperature (°C),LED temperature (°C),Box temperature (°C),Sample RH (%),Span deviation,Mass concentration (μg/m³),Mass concentration (μg/m³),Mass concentration (μg/m³)
DateTimeUTC,F1_M11,P_M11,Q1_M11,Q2_M11,T1_M11,T2_M11,T3_M11,T4_M11,T5_M11,U1_M11,ZSPAN_M11,X0_M11,X2_M11,X1_M11
2022-06-12 21:00:00,,0819.8,4.99,0.00,28.8,26.9,00.0,37.5,30.6,20.6,0000.0,0010.22,0003.99,0003.24
2022-06-12 21:01:00,,0819.8,5.01,0.00,28.8,26.9,00.0,37.5,30.6,20.7,0000.0,0010.36,0004.04,0003.25
2022-06-12 21:02:00,,0819.7,5.00,0.00,28.7,27.0,00.0,37.6,30.6,19.1,0000.0,0010.49,0004.06,0003.25
2022-06-12 21:03:00,,0819.7,4.99,0.00,28.7,27.1,00.0,37.6,30.6,19.7,0000.0,0010.76,0004.04,0003.24
2022-06-12 21:04:00,,0819.7,5.00,0.00,28.7,27.3,00.0,37.6,30.7,19.9,0000.0,0011.06,0004.01,0003.22
2022-06-12 21:05:00,,0819.7,5.00,0.00,28.8,27.5,00.0,37.6,30.7,20.6,0000.0,0012.00,0004.04,0003.23
2022-06-12 21:06:00,,0819.7,5.00,0.00,28.8,27.7,00.0,37.6,30.8,18.9,0000.0,0011.91,0004.06,0003.24
2022-06-12 21:07:00,,0819.7,5.02,0.00,28.9,27.8,00.0,37.6,30.9,19.9,0000.0,0012.42,0004.05,0003.24
2022-06-12 21:08:00,,0819.7,5.00,0.00,28.9,28.0,00.0,37.6,30.9,20.9,0000.0,0013.10,0004.07,0003.24
2022-06-12 21:09:00,,0819.6,5.00,0.00,28.9,28.1,00.0,37.7,31.0,22.0,0000.0,0013.52,0004.07,0003.25
2022-06-12 21:10:00,,0819.5,4.99,0.00,28.9,27.6,00.0,37.6,30.9,22.6,0000.0,0013.43,0004.07,0003.26
2022-06-12 21:11:00,,0819.5,5.00,0.00,28.9,27.1,00.0,37.6,30.7,22.7,0000.0,0012.90,0004.09,0003.26
2022-06-12 21:12:00,,0819.5,5.01,0.00,28.8,27.0,00.0,37.6,30.7,22.3,0000.0,0013.64,0004.06,0003.26
2022-06-12 21:13:00,,0819.5,5.00,0.00,28.8,27.1,00.0,37.6,30.6,21.1,0000.0,0014.20,0004.09,0003.28
2022-06-12 21:14:00,,0819.5,5.00,0.00,28.8,27.2,00.0,37.6,30.6,21.3,0000.0,0014.05,0004.11,0003.28
2022-06-12 21:15:00,,0819.5,5.00,0.00,28.8,27.3,00.0,37.6,30.7,21.6,0000.0,0014.17,0004.16,0003.29
2022-06-12 21:16:00,,0819.5,4.99,0.00,28.8,27.5,00.0,37.6,30.8,21.4,0000.0,0013.64,0004.11,0003.28
2022-06-12 21:17:00,,0819.5,5.00,0.00,28.8,27.7,00.0,37.6,30.8,20.9,0000.0,0014.18,0004.09,0003.27
2022-06-12 21:18:00,,0819.5,5.00,0.00,28.9,27.8,00.0,37.6,30.9,19.6,0000.0,0014.11,0004.13,0003.28
2022-06-12 21:19:00,,0819.5,5.00,0.00,28.9,28.0,00.0,37.6,30.9,20.2,0000.0,0013.71,0004.14,0003.29
2022-06-12 21:20:00,,0819.5,5.00,0.00,28.9,27.5,00.0,37.6,30.8,21.6,0000.0,0013.93,0004.18,0003.28
2022-06-12 21:21:00,,0819.6,5.00,0.00,28.9,26.9,00.0,37.6,30.7,21.2,0000.0,0013.94,0004.19,0003.27
2022-06-12 21:22:00,,0819.6,5.00,0.00,28.8,26.8,00.0,37.5,30.6,19.2,0000.0,0013.85,0004.18,0003.27
2022-06-12 21:23:00,,0819.5,4.99,0.00,28.8,26.9,00.0,37.6,30.6,19.1,0000.0,0012.59,0004.20,0003.28
2022-06-12 21:24:00,,0819.5,5.00,0.00,28.7,27.0,00.0,37.6,30.6,19.8,0000.0,0012.24,0004.17,0003.27
2022-06-12 21:25:00,,0819.5,5.01,0.00,28.7,27.2,00.0,37.6,30.6,19.6,0000.0,0012.24,0004.16,0003.27
2022-06-12 21:26:00,,0819.5,5.00,0.00,28.8,27.4,00.0,37.6,30.7,19.6,0000.0,0011.85,0004.14,0003.27
2022-06-12 21:27:00,,0819.6,4.99,0.00,28.8,27.6,00.0,37.6,30.8,19.4,0000.0,0012.22,0004.17,0003.28
2022-06-12 21:28:00,,0819.5,5.00,0.00,28.8,27.8,00.0,37.6,30.8,20.9,0000.0,0011.56,0004.19,0003.29
2022-06-12 21:29:00,,0819.5,5.00,0.00,28.9,27.9,00.0,37.6,30.9,21.1,0000.0,0011.36,0004.21,0003.29
2022-06-12 21:30:00,,0819.4,5.00,0.00,28.9,27.9,00.0,37.6,30.9,20.3,0000.0,0012.01,0004.19,0003.29
2022-06-12 21:31:00,,0819.4,5.00,0.00,28.9,27.3,00.0,37.6,30.8,20.3,0000.0,0011.98,0004.15,0003.30
2022-06-12 21:32:00,,0819.4,5.01,0.00,28.8,26.9,00.0,37.5,30.6,20.3,0000.0,0012.65,0004.16,0003.32
2022-06-12 21:33:00,,0819.3,5.00,0.00,28.8,26.9,00.0,37.5,30.6,19.9,0000.0,0012.86,0004.19,0003.33
2022-06-12 21:34:00,,0819.3,5.01,0.00,28.7,27.0,00.0,37.6,30.6,21.2,0000.0,0012.86,0004.19,0003.34
2022-06-12 21:35:00,,0819.2,5.00,0.00,28.7,27.1,00.0,37.6,30.6,20.8,0000.0,0012.26,0004.19,0003.35
2022-06-12 21:36:00,,0819.3,5.00,0.00,28.7,27.3,00.0,37.6,30.7,20.8,0000.0,0012.52,0004.19,0003.35
2022-06-12 21:37:00,,0819.3,4.99,0.00,28.8,27.5,00.0,37.6,30.7,22.2,0000.0,0013.09,0004.24,0003.36
2022-06-12 21:38:00,,0819.3,5.00,0.00,28.8,27.7,00.0,37.6,30.8,21.6,0000.0,0012.55,0004.26,0003.38
2022-06-12 21:39:00,,0819.3,5.00,0.00,28.9,27.8,00.0,37.6,30.9,21.2,0000.0,0012.45,0004.27,0003.39
2022-06-12 21:40:00,,0819.2,5.00,0.00,28.9,28.0,00.0,37.7,30.9,21.9,0000.0,0012.86,0004.26,0003.39
2022-06-12 21:41:00,,0819.1,4.99,0.00,28.9,27.8,00.0,37.6,30.9,21.7,0000.0,0012.08,0004.27,0003.41
2022-06-12 21:42:00,,0819.1,5.00,0.00,28.9,27.2,00.0,37.6,30.7,20.8,0000.0,0012.09,0004.33,0003.42
2022-06-12 21:43:00,,0819.1,5.00,0.00,28.8,26.9,00.0,37.6,30.6,19.6,0000.0,0011.78,0004.33,0003.43
2022-06-12 21:44:00,,0819.0,5.01,0.00,28.8,26.9,00.0,37.6,30.6,20.3,0000.0,0011.51,0004.33,0003.43
2022-06-12 21:45:00,,0819.0,5.00,0.00,28.7,27.0,00.0,37.6,30.6,21.0,0000.0,0011.48,0004.32,0003.44
2022-06-12 21:46:00,,0819.0,5.00,0.00,28.7,27.2,00.0,37.6,30.6,20.2,0000.0,0011.40,0004.32,0003.45
2022-06-12 21:47:00,,0819.0,5.00,0.00,28.8,27.4,00.0,37.6,30.7,19.5,0000.0,0011.45,0004.35,0003.46
2022-06-12 21:48:00,,0819.0,5.00,0.00,28.8,27.6,00.0,37.6,30.8,20.0,0000.0,0010.94,0004.32,0003.47
2022-06-12 21:49:00,,0819.0,4.99,0.00,28.8,27.8,00.0,37.6,30.8,19.7,0000.0,0010.78,0004.29,0003.47
2022-06-12 21:50:00,,0818.9,5.00,0.00,28.9,27.9,00.0,37.6,30.9,20.6,0000.0,0010.52,0004.30,0003.48
2022-06-12 21:51:00,,0818.9,5.00,0.00,28.9,27.9,00.0,37.6,30.9,20.8,0000.0,0009.81,0004.28,0003.49
2022-06-12 21:52:00,,0818.9,5.00,0.00,28.9,27.2,00.0,37.6,30.8,20.4,0000.0,0009.80,0004.28,0003.50
2022-06-12 21:53:00,,0818.9,4.99,0.00,28.8,26.9,00.0,37.5,30.7,20.4,0000.0,0009.03,0004.24,0003.49
2022-06-12 21:54:00,,0818.9,5.01,0.00,28.8,26.9,00.0,37.6,30.6,20.8,0000.0,0008.50,0004.21,0003.49
2022-06-12 21:55:00,,0818.9,5.00,0.00,28.8,27.0,00.0,37.6,30.6,21.2,0000.0,0008.53,0004.20,0003.49
2022-06-12 21:56:00,,0818.9,5.00,0.00,28.8,27.2,00.0,37.6,30.6,21.2,0000.0,0008.55,0004.18,0003.49
2022-06-12 21:57:00,,0818.9,5.00,0.00,28.8,27.4,00.0,37.6,30.7,20.8,0000.0,0008.80,0004.22,0003.50
2022-06-12 21:58:00,,0818.8,5.00,0.00,28.8,27.6,00.0,37.6,30.8,20.7,0000.0,0008.48,0004.23,0003.52
2022-06-12 21:59:00,,0818.8,5.00,0.00,28.8,27.7,00.0,37.6,30.8,21.7,0000.0,0008.77,0004.25,0003.53
